Time,TemperatureF,DewpointF,PressureIn,WindDirection,WindDirectionDegrees,WindSpeedMPH,WindSpeedGustMPH,Humidity,HourlyPrecipIn,Conditions,Clouds,dailyrainin,SolarRadiationWatts/m^2,SoftwareType,DateUTC
2013-10-28 00:02:00,49.0,32.0,-100.00,SE,130,11.0,17.0,51,0.00,,,0.00,1.000000,,2013-10-28 06:02:00,
2013-10-28 00:12:00,49.0,32.0,-100.00,SE,130,11.0,17.0,51,0.00,,,0.00,1.000000,,2013-10-28 06:12:00,
2013-10-28 00:43:00,46.0,30.0,-100.00,SE,139,7.0,14.0,54,0.00,,,0.00,1.000000,,2013-10-28 06:43:00,
2013-10-28 00:52:00,46.0,30.0,-100.00,SE,139,7.0,14.0,54,0.00,,,0.00,1.000000,,2013-10-28 06:52:00,
2013-10-28 01:01:00,46.0,30.0,-100.00,SE,139,7.0,14.0,54,0.00,,,0.00,1.000000,,2013-10-28 07:01:00,
2013-10-28 01:12:00,46.0,30.0,-100.00,SE,139,7.0,14.0,54,0.00,,,0.00,1.000000,,2013-10-28 07:12:00,
2013-10-28 01:42:00,44.0,28.0,-100.00,SE,136,5.0,9.0,54,0.00,,,0.00,1.000000,,2013-10-28 07:42:00,
2013-10-28 01:52:00,44.0,28.0,-100.00,SE,136,5.0,9.0,54,0.00,,,0.00,1.000000,,2013-10-28 07:52:00,
2013-10-28 02:02:00,44.0,28.0,-100.00,SE,136,5.0,9.0,54,0.00,,,0.00,1.000000,,2013-10-28 08:02:00,
2013-10-28 02:11:00,44.0,28.0,-100.00,SE,136,5.0,9.0,54,0.00,,,0.00,1.000000,,2013-10-28 08:11:00,
2013-10-28 02:42:00,45.0,28.0,-100.00,ESE,114,4.0,9.0,51,0.00,,,0.00,1.000000,,2013-10-28 08:42:00,
2013-10-28 02:52:00,45.0,28.0,-100.00,ESE,114,4.0,9.0,51,0.00,,,0.00,1.000000,,2013-10-28 08:52:00,
2013-10-28 03:02:00,45.0,28.0,-100.00,ESE,114,4.0,9.0,51,0.00,,,0.00,1.000000,,2013-10-28 09:02:00,
2013-10-28 03:11:00,45.0,28.0,-100.00,ESE,114,4.0,9.0,51,0.00,,,0.00,1.000000,,2013-10-28 09:11:00,
2013-10-28 03:43:00,43.0,28.0,-100.00,ESE,108,6.0,8.0,56,0.00,,,0.00,1.000000,,2013-10-28 09:43:00,
2013-10-28 03:53:00,43.0,28.0,-100.00,ESE,108,6.0,8.0,56,0.00,,,0.00,1.000000,,2013-10-28 09:53:00,
2013-10-28 04:03:00,43.0,28.0,-100.00,ESE,108,6.0,8.0,56,0.00,,,0.00,1.000000,,2013-10-28 10:03:00,
2013-10-28 04:13:00,43.0,28.0,-100.00,ESE,108,6.0,8.0,56,0.00,,,0.00,1.000000,,2013-10-28 10:13:00,
2013-10-28 04:43:00,44.0,29.0,-100.00,East,95,7.0,9.0,56,0.00,,,0.00,1.000000,,2013-10-28 10:43:00,
2013-10-28 04:53:00,44.0,29.0,-100.00,East,95,7.0,9.0,56,0.00,,,0.00,1.000000,,2013-10-28 10:53:00,
2013-10-28 05:03:00,44.0,29.0,-100.00,East,95,7.0,9.0,56,0.00,,,0.00,1.000000,,2013-10-28 11:03:00,
2013-10-28 05:12:00,44.0,29.0,-100.00,East,95,7.0,9.0,56,0.00,,,0.00,1.000000,,2013-10-28 11:12:00,
2013-10-28 05:42:00,42.0,28.0,-100.00,ESE,103,5.0,11.0,58,0.00,,,0.00,1.000000,,2013-10-28 11:42:00,
2013-10-28 05:52:00,42.0,28.0,-100.00,ESE,103,5.0,11.0,58,0.00,,,0.00,1.000000,,2013-10-28 11:52:00,
2013-10-28 06:01:00,42.0,28.0,-100.00,ESE,103,5.0,11.0,58,0.00,,,0.00,1.000000,,2013-10-28 12:01:00,
2013-10-28 06:11:00,42.0,28.0,-100.00,ESE,103,5.0,11.0,58,0.00,,,0.00,1.000000,,2013-10-28 12:11:00,
2013-10-28 06:42:00,43.0,28.0,-100.00,SE,133,6.0,10.0,54,0.00,,,0.00,1.000000,,2013-10-28 12:42:00,
2013-10-28 06:52:00,43.0,28.0,-100.00,SE,133,6.0,10.0,54,0.00,,,0.00,1.000000,,2013-10-28 12:52:00,
2013-10-28 07:01:00,43.0,28.0,-100.00,SE,133,6.0,10.0,54,0.00,,,0.00,1.000000,,2013-10-28 13:01:00,
2013-10-28 07:11:00,43.0,28.0,-100.00,SE,133,6.0,10.0,54,0.00,,,0.00,1.000000,,2013-10-28 13:11:00,
2013-10-28 07:42:00,40.0,28.0,-100.00,ESE,112,5.0,8.0,61,0.00,,,0.00,1.000000,,2013-10-28 13:42:00,
2013-10-28 07:52:00,40.0,28.0,-100.00,ESE,112,5.0,8.0,61,0.00,,,0.00,1.000000,,2013-10-28 13:52:00,
2013-10-28 08:02:00,40.0,28.0,-100.00,ESE,112,5.0,8.0,61,0.00,,,0.00,1.000000,,2013-10-28 14:02:00,
2013-10-28 08:11:00,40.0,28.0,-100.00,ESE,112,5.0,8.0,61,0.00,,,0.00,1.000000,,2013-10-28 14:11:00,
2013-10-28 11:12:00,56.0,23.0,-100.00,South,169,14.0,21.0,27,-99.99,,,0.00,451.000000,,2013-10-28 17:12:00,
2013-10-28 11:42:00,58.0,21.0,-100.00,South,176,14.0,22.0,24,0.00,,,0.00,648.000000,,2013-10-28 17:42:00,
2013-10-28 11:52:00,58.0,21.0,-100.00,South,176,14.0,22.0,24,0.00,,,0.00,648.000000,,2013-10-28 17:52:00,
2013-10-28 12:02:00,58.0,21.0,-100.00,South,176,14.0,22.0,24,0.00,,,0.00,648.000000,,2013-10-28 18:02:00,
2013-10-28 12:12:00,58.0,21.0,-100.00,South,176,14.0,22.0,24,0.00,,,0.00,648.000000,,2013-10-28 18:12:00,
2013-10-28 12:42:00,59.0,20.0,-100.00,South,185,17.0,27.0,22,0.00,,,0.00,789.000000,,2013-10-28 18:42:00,
2013-10-28 12:52:00,59.0,20.0,-100.00,South,185,17.0,27.0,22,0.00,,,0.00,789.000000,,2013-10-28 18:52:00,
2013-10-28 13:01:00,59.0,20.0,-100.00,South,185,17.0,27.0,22,0.00,,,0.00,789.000000,,2013-10-28 19:01:00,
2013-10-28 13:11:00,59.0,20.0,-100.00,South,185,17.0,27.0,22,0.00,,,0.00,789.000000,,2013-10-28 19:11:00,
2013-10-28 13:42:00,61.0,18.0,-100.00,South,191,21.0,30.0,19,0.00,,,0.00,856.000000,,2013-10-28 19:42:00,
2013-10-28 13:52:00,61.0,18.0,-100.00,South,191,21.0,30.0,19,0.00,,,0.00,856.000000,,2013-10-28 19:52:00,
2013-10-28 14:02:00,61.0,18.0,-100.00,South,191,21.0,30.0,19,0.00,,,0.00,856.000000,,2013-10-28 20:02:00,
2013-10-28 14:11:00,61.0,18.0,-100.00,South,191,21.0,30.0,19,0.00,,,0.00,856.000000,,2013-10-28 20:11:00,
2013-10-28 14:42:00,63.0,18.0,-100.00,South,170,14.0,32.0,17,0.00,,,0.00,880.000000,,2013-10-28 20:42:00,
2013-10-28 14:52:00,63.0,18.0,-100.00,South,170,14.0,32.0,17,0.00,,,0.00,880.000000,,2013-10-28 20:52:00,
2013-10-28 15:02:00,63.0,18.0,-100.00,South,170,14.0,32.0,17,0.00,,,0.00,880.000000,,2013-10-28 21:02:00,
2013-10-28 15:11:00,63.0,18.0,-100.00,South,170,14.0,32.0,17,0.00,,,0.00,880.000000,,2013-10-28 21:11:00,
2013-10-28 15:43:00,65.0,16.0,-100.00,South,173,16.0,27.0,15,0.00,,,0.00,878.000000,,2013-10-28 21:43:00,
2013-10-28 15:54:00,65.0,16.0,-100.00,South,173,16.0,27.0,15,0.00,,,0.00,878.000000,,2013-10-28 21:54:00,
2013-10-28 16:03:00,65.0,16.0,-100.00,South,173,16.0,27.0,15,0.00,,,0.00,878.000000,,2013-10-28 22:03:00,
2013-10-28 16:13:00,65.0,16.0,-100.00,South,173,16.0,27.0,15,0.00,,,0.00,878.000000,,2013-10-28 22:13:00,
2013-10-28 16:43:00,61.0,13.0,-100.00,SSW,195,18.0,35.0,15,0.00,,,0.00,436.000000,,2013-10-28 22:43:00,
2013-10-28 16:53:00,61.0,13.0,-100.00,SSW,195,18.0,35.0,15,0.00,,,0.00,436.000000,,2013-10-28 22:53:00,
2013-10-28 17:03:00,61.0,13.0,-100.00,SSW,195,18.0,35.0,15,0.00,,,0.00,436.000000,,2013-10-28 23:03:00,
2013-10-28 17:12:00,61.0,13.0,-100.00,SSW,195,18.0,35.0,15,0.00,,,0.00,436.000000,,2013-10-28 23:12:00,
2013-10-28 17:43:00,63.0,11.0,-100.00,SSW,200,13.0,27.0,13,0.00,,,0.00,381.000000,,2013-10-28 23:43:00,
2013-10-28 17:52:00,63.0,11.0,-100.00,SSW,200,13.0,27.0,13,0.00,,,0.00,381.000000,,2013-10-28 23:52:00,
2013-10-28 18:01:00,63.0,11.0,-100.00,SSW,200,13.0,27.0,13,0.00,,,0.00,381.000000,,2013-10-29 00:01:00,
2013-10-28 18:11:00,63.0,11.0,-100.00,SSW,200,13.0,27.0,13,0.00,,,0.00,381.000000,,2013-10-29 00:11:00,
2013-10-28 18:42:00,58.0,13.0,-100.00,SSW,197,10.0,22.0,17,0.00,,,0.00,157.000000,,2013-10-29 00:42:00,
2013-10-28 18:52:00,58.0,13.0,-100.00,SSW,197,10.0,22.0,17,0.00,,,0.00,157.000000,,2013-10-29 00:52:00,
2013-10-28 19:01:00,58.0,13.0,-100.00,SSW,197,10.0,22.0,17,0.00,,,0.00,157.000000,,2013-10-29 01:01:00,
2013-10-28 19:11:00,58.0,13.0,-100.00,SSW,197,10.0,22.0,17,0.00,,,0.00,157.000000,,2013-10-29 01:11:00,
2013-10-28 19:53:00,54.0,14.0,-100.00,SSW,199,12.0,23.0,20,0.00,,,0.00,3.000000,,2013-10-29 01:53:00,
2013-10-28 20:02:00,54.0,14.0,-100.00,SSW,199,12.0,23.0,20,0.00,,,0.00,3.000000,,2013-10-29 02:02:00,
2013-10-28 20:11:00,54.0,14.0,-100.00,SSW,199,12.0,23.0,20,0.00,,,0.00,3.000000,,2013-10-29 02:11:00,
2013-10-28 20:44:00,53.0,14.0,-100.00,South,191,11.0,26.0,21,0.00,,,0.00,1.000000,,2013-10-29 02:44:00,
2013-10-28 20:54:00,53.0,14.0,-100.00,South,191,11.0,26.0,21,0.00,,,0.00,1.000000,,2013-10-29 02:54:00,
2013-10-28 21:03:00,53.0,14.0,-100.00,South,191,11.0,26.0,21,0.00,,,0.00,1.000000,,2013-10-29 03:03:00,
2013-10-28 21:14:00,53.0,14.0,-100.00,South,191,11.0,26.0,21,0.00,,,0.00,1.000000,,2013-10-29 03:14:00,
2013-10-28 21:40:00,-999.0,-99.9,-100.00,South,171,7.0,17.0,24,0.00,,,0.00,1.000000,,2013-10-29 03:40:00,
2013-10-28 21:48:00,50.0,15.0,-100.00,South,171,7.0,17.0,24,0.00,,,0.00,1.000000,,2013-10-29 03:48:00,
2013-10-28 21:55:00,50.0,15.0,-100.00,South,171,7.0,17.0,24,0.00,,,0.00,1.000000,,2013-10-29 03:55:00,
2013-10-28 22:03:00,50.0,15.0,-100.00,South,171,7.0,17.0,24,0.00,,,0.00,1.000000,,2013-10-29 04:03:00,
2013-10-28 22:13:00,50.0,15.0,-100.00,South,171,7.0,17.0,24,0.00,,,0.00,1.000000,,2013-10-29 04:13:00,
2013-10-28 22:15:00,43.0,15.0,-100.00,ESE,115,5.0,8.0,32,0.00,,,0.00,1.000000,,2013-10-29 04:15:00,
2013-10-28 22:44:00,43.0,15.0,-100.00,ESE,115,5.0,8.0,32,0.00,,,0.00,1.000000,,2013-10-29 04:44:00,
2013-10-28 22:57:00,43.0,15.0,-100.00,ESE,115,5.0,8.0,32,0.00,,,0.00,1.000000,,2013-10-29 04:57:00,
2013-10-28 23:04:00,43.0,15.0,-100.00,ESE,115,5.0,8.0,32,0.00,,,0.00,1.000000,,2013-10-29 05:04:00,
2013-10-28 23:15:00,42.0,16.0,-100.00,SE,136,5.0,10.0,34,0.00,,,0.00,1.000000,,2013-10-29 05:15:00,
2013-10-28 23:45:00,42.0,16.0,-100.00,SE,136,5.0,10.0,34,0.00,,,0.00,1.000000,,2013-10-29 05:45:00,
2013-10-28 23:52:00,42.0,16.0,-100.00,SE,136,5.0,10.0,34,0.00,,,0.00,1.000000,,2013-10-29 05:52:00,